GFSNW_prec_cthk_057.txt.gz
RH
98 96 94 83 63 71 80 62 58 44 33 46 43 46 45 51 43 44 43 48 50 47 41 39 29 26 25 26 27 31 36 40 46 39 44 51 50 47 49 56 53 56 55 46
95 99 99 95 72 70 82 71 58 55 36 50 39 40 48 43 50 43 49 48 50 49 47 40 37 30 26 28 30 31 38 42 44 40 39 44 48 49 48 50 54 53 57 48
97 99 99 98 81 73 81 80 69 74 57 31 33 45 46 50 47 49 54 47 50 51 52 49 40 35 29 28 32 34 39 43 39 38 36 37 42 43 45 47 54 48 46 43
96 98 99 98 91 77 90 82 79 56 55 43 34 34 37 46 49 49 49 46 44 51 53 58 48 43 41 41 37 39 42 42 42 39 40 42 39 37 42 44 39 45 40 46
98 98 99 99 93 86 94 81 71 53 46 38 42 46 44 43 46 44 51 46 48 32 49 57 60 51 50 47 45 44 44 48 47 45 45 43 44 39 44 46 45 40 41 38
99 98 98 99 96 90 84 71 57 53 40 51 44 39 42 44 44 41 47 44 43 35 34 59 58 53 52 52 49 51 50 52 50 50 50 50 49 41 43 45 44 41 39 34
99 99 98 98 94 83 76 70 60 65 59 50 40 35 42 42 43 39 40 37 40 26 32 51 63 56 56 58 54 55 56 53 51 59 59 62 38 40 42 44 40 37 34 28
99 98 98 97 91 87 83 73 66 59 68 51 44 41 42 48 42 42 36 36 31 38 32 49 54 64 57 59 59 58 56 57 60 64 60 50 39 37 43 45 30 32 25 25
98 98 98 97 90 95 86 80 71 65 78 56 48 45 40 48 48 45 41 36 43 50 46 43 58 63 61 63 66 63 60 61 62 65 61 57 41 38 39 41 32 29 34 33
98 99 97 98 90 92 84 84 79 69 78 78 55 53 46 39 43 40 38 30 45 50 54 54 58 64 70 76 74 72 63 66 61 64 62 52 43 42 40 46 35 35 34 30
99 98 98 96 88 96 94 86 79 72 81 84 76 62 50 43 41 35 34 32 35 55 60 63 54 63 56 65 81 74 62 67 66 65 64 54 47 47 45 38 40 44 38 29
98 98 98 93 91 95 91 86 81 89 87 88 81 81 65 45 34 28 29 25 24 27 37 50 58 58 59 55 55 70 69 57 58 55 51 49 48 45 41 38 50 50 40 32
98 96 95 98 91 94 89 79 82 81 95 78 74 77 80 69 49 32 27 25 34 31 25 32 34 48 50 61 57 67 71 67 65 62 54 54 51 48 49 45 49 48 39 32
98 97 94 93 90 85 80 78 83 82 95 78 89 79 70 72 61 46 33 31 41 50 43 42 47 49 40 49 45 49 58 65 68 65 62 61 59 59 60 57 55 48 37 33
96 92 93 88 82 78 77 78 86 92 97 82 67 83 82 75 67 62 52 40 40 44 50 55 56 49 49 46 45 48 48 53 61 59 61 64 59 61 62 63 61 49 37 37
84 84 87 85 79 71 69 78 78 79 90 85 88 71 63 73 71 67 62 52 46 50 51 50 49 56 59 61 52 40 42 48 51 60 62 59 60 62 62 64 61 47 41 41
80 84 84 79 74 65 60 59 64 72 83 96 90 95 76 73 61 53 56 56 60 55 49 51 57 55 61 60 56 52 44 40 54 59 62 61 60 60 57 55 57 51 48 46
61 61 65 64 66 62 56 55 68 80 86 94 89 95 89 89 93 79 69 63 64 65 65 61 48 56 60 61 49 45 49 55 58 64 61 60 60 61 60 54 55 52 50 51
77 76 76 81 82 84 83 88 91 89 98 92 85 96 97 80 87 93 83 78 81 74 74 73 63 56 56 45 45 55 58 55 53 56 59 62 61 66 65 61 64 59 60 62
82 83 94 97 96 96 91 94 98 94 95 96 70 81 92 90 80 76 79 96 99 99 92 87 77 60 52 51 52 53 52 50 51 55 60 65 68 69 70 76 78 79 78 78
88 85 91 84 86 91 89 85 90 89 89 71 56 51 59 63 62 59 69 91 97 94 90 91 79 66 62 60 58 58 60 64 66 67 69 70 71 77 83 86 86 85 85 87
94 81 73 72 81 89 96 83 79 65 65 76 76 65 61 62 66 65 72 81 90 87 85 86 82 78 79 78 78 81 80 79 79 78 77 82 86 89 91 93 93 96 97 96
81 79 83 90 92 98 93 72 62 58 53 56 60 71 89 81 73 70 74 84 90 88 88 87 86 86 87 86 84 89 93 96 98 97 97 97 97 98 98 98 98 98 98 98
96 96 97 96 89 85 78 65 62 65 55 53 56 71 90 86 77 86 93 96 96 94 94 93 93 95 94 92 93 89 89 91 96 98 95 96 97 97 98 97 98 97 96 96
98 98 97 94 84 79 73 69 64 64 65 65 70 72 78 87 98 98 98 98 97 97 96 95 95 95 92 91 92 93 93 94 93 93 94 95 98 98 97 97 97 96 90 91
97 96 97 97 97 96 97 95 96 98 98 97 95 97 98 98 97 96 97 97 97 94 94 93 91 90 90 90 92 94 96 96 96 97 97 97 98 97 97 93 90 94 97 97
97 97 97 97 97 97 98 98 98 98 98 98 98 97 97 98 97 96 95 95 96 97 96 97 98 98 98 98 98 98 98 98 97 97 97 97 97 95 95 96 96 96 97 93

GFSNW_prec_cthk_063.txt.gz
RH
87 86 83 82 85 87 93 98 84 74 75 78 62 44 37 42 32 35 45 49 34 51 50 41 48 49 46 38 32 33 35 39 53 43 35 35 54 45 52 55 50 50 49 45
90 89 89 90 89 92 94 91 93 92 85 76 58 28 27 43 53 39 52 51 43 48 48 51 42 52 43 38 35 37 36 42 46 49 45 38 40 49 53 54 51 59 62 48
92 93 96 94 91 91 98 97 94 98 93 64 46 34 31 39 45 48 54 54 52 44 41 48 45 42 49 39 33 36 38 40 42 43 44 42 39 40 47 52 56 49 48 45
90 86 91 99 94 91 96 98 87 78 75 67 49 48 38 29 35 47 54 58 52 48 42 51 57 47 54 44 36 40 41 42 40 39 44 44 44 43 42 47 49 50 44 45
92 86 82 99 99 98 97 94 77 74 72 76 60 54 50 47 30 39 60 58 55 54 48 50 67 58 57 53 39 38 41 48 42 42 41 45 44 42 42 39 41 36 37 40
87 73 70 81 99 98 99 92 75 79 82 82 74 55 47 49 40 40 52 55 61 61 63 59 62 66 59 67 60 41 47 50 48 46 42 45 47 36 36 37 40 39 38 38
86 85 76 82 97 98 98 77 76 93 88 87 54 55 51 43 54 37 57 61 62 68 60 60 63 61 61 67 61 61 53 50 50 53 56 63 34 38 37 38 36 36 37 36
98 96 77 82 87 98 96 93 87 91 91 78 75 62 59 58 52 58 58 66 60 80 48 57 66 67 70 72 65 62 61 53 57 61 52 41 38 35 35 38 36 39 40 40
99 97 84 86 89 98 99 92 90 89 87 79 78 67 65 61 58 64 60 65 67 70 53 50 59 52 64 69 72 64 68 66 61 58 57 58 34 38 36 39 41 36 45 47
95 98 88 84 92 96 98 96 92 90 87 83 87 71 58 58 59 55 67 68 70 53 48 54 45 42 43 56 74 84 76 76 73 65 60 43 37 38 40 49 35 46 42 42
93 96 81 83 93 97 98 93 90 92 91 86 88 77 67 64 66 65 72 75 72 63 55 48 46 54 35 42 56 73 72 74 78 71 74 66 42 41 40 36 43 44 43 39
96 84 80 85 92 97 99 99 93 90 92 95 93 84 77 70 62 63 73 83 63 54 54 40 44 63 56 49 56 69 84 71 71 64 59 51 47 45 46 50 52 50 46 45
91 78 84 87 97 98 98 97 94 91 90 97 90 78 73 80 73 76 63 78 65 59 49 46 45 54 49 55 41 38 55 68 70 70 60 60 56 49 48 51 54 54 51 48
88 89 86 89 98 98 98 95 95 94 98 96 92 79 65 71 73 81 62 67 79 72 60 54 47 38 35 50 44 34 30 41 48 50 50 53 55 51 57 58 60 58 56 53
97 98 98 98 98 98 97 97 96 93 89 88 86 80 72 75 76 87 82 55 75 66 63 54 44 28 25 38 39 39 33 36 46 45 39 42 46 53 64 65 64 62 60 58
98 98 97 98 98 97 97 98 98 95 94 76 71 74 88 81 80 84 81 71 67 66 58 48 30 24 36 47 43 37 33 32 34 38 46 48 51 52 54 60 64 64 63 60
98 98 98 99 98 99 96 92 87 88 81 72 67 72 79 83 87 91 83 77 62 70 74 70 55 42 38 45 43 23 26 30 31 38 41 40 41 46 47 53 50 51 55 58
97 97 97 98 98 97 91 84 81 72 69 62 64 70 82 85 83 96 87 79 74 69 69 65 59 58 58 57 31 22 24 27 33 38 40 40 36 35 37 40 44 49 55 59
97 98 98 96 96 95 88 82 78 71 66 58 57 59 80 82 85 91 90 90 85 67 52 52 56 52 60 49 28 29 33 35 35 35 37 41 45 47 49 51 53 50 52 60
97 96 95 94 93 78 70 70 67 61 52 55 57 63 81 77 77 95 96 96 96 84 71 66 67 53 50 53 46 41 43 43 45 42 43 45 47 52 54 55 56 56 56 61
80 78 79 71 64 64 68 62 57 58 59 53 62 71 78 79 86 84 94 87 88 89 81 69 66 57 61 58 54 50 51 55 58 59 49 46 49 54 56 60 63 63 63 64
65 69 62 54 62 68 73 65 64 67 58 60 75 81 82 91 94 92 88 93 89 89 76 82 83 85 85 93 85 76 77 76 74 70 66 61 59 63 68 69 70 72 75 79
66 76 73 85 91 90 85 76 73 73 73 75 72 83 88 95 98 98 98 97 92 88 91 89 86 92 94 94 91 89 89 90 90 87 81 80 83 86 89 88 90 90 92 95
86 86 87 92 85 84 85 84 82 77 73 73 82 83 89 98 97 89 87 89 93 95 93 87 87 88 90 91 92 94 94 93 92 93 93 94 93 92 93 93 93 95 96 96
84 84 85 89 91 91 90 92 85 75 80 78 79 88 92 97 95 88 98 98 94 89 85 84 85 87 90 91 92 91 92 92 93 94 96 95 95 97 97 97 97 97 96 97
85 80 85 87 88 91 86 83 77 78 87 94 96 97 98 95 91 87 89 87 88 89 87 90 93 95 95 94 93 93 93 93 95 95 95 95 96 96 94 96 96 97 96 97
91 91 85 84 77 75 74 79 81 79 78 74 77 85 89 85 82 85 93 95 93 95 95 93 95 96 95 95 95 95 94 94 94 94 95 96 96 96 96 97 96 97 97 96

GFSNW_prec_cthk_069.txt.gz
RH
97 96 96 96 97 99 99 98 93 89 95 86 65 55 62 52 39 39 39 53 51 55 60 57 61 63 46 41 48 49 49 62 64 54 49 40 43 34 47 66 62 66 73 63
93 92 92 94 96 98 100 98 94 97 94 79 61 58 58 58 52 40 26 40 52 50 57 61 61 57 60 45 45 52 54 68 77 63 50 48 47 42 38 43 64 66 72 59
90 89 92 93 94 97 99 99 97 94 86 68 62 67 63 62 58 54 36 27 54 57 63 59 72 68 62 53 50 49 61 67 72 64 59 58 49 47 45 46 63 63 60 52
89 89 90 92 97 99 99 98 88 78 74 66 77 70 61 61 58 50 38 31 45 58 66 69 67 82 76 62 56 54 57 63 64 61 58 63 58 49 38 41 50 60 52 52
74 77 81 84 89 97 99 98 88 80 71 82 84 78 63 57 52 47 43 34 31 50 51 56 70 77 80 80 69 65 57 60 65 65 61 62 65 53 44 41 43 50 55 56
62 64 69 80 83 93 98 98 90 82 77 88 87 61 58 64 63 51 46 37 37 56 49 72 76 77 79 75 76 69 64 62 68 68 66 62 70 54 51 52 44 41 41 41
76 74 69 65 77 87 95 97 91 97 90 86 67 71 72 73 63 61 56 44 31 30 60 54 68 81 81 70 69 55 58 58 67 75 70 71 51 49 57 54 49 49 46 45
89 87 85 81 74 83 99 98 98 97 96 67 84 77 70 76 72 65 54 45 36 38 60 80 76 90 85 71 61 64 60 67 74 81 71 59 51 43 54 53 47 46 45 42
89 86 82 79 78 79 98 98 98 97 93 74 71 80 78 81 71 68 54 52 48 44 56 83 91 91 84 79 77 69 73 66 75 78 71 65 48 40 45 50 52 44 38 37
84 84 81 77 77 76 92 97 97 99 95 81 82 79 75 71 72 61 59 58 58 41 60 68 83 81 74 71 70 76 72 74 78 85 83 64 50 41 46 50 51 37 35 39
92 87 87 88 86 86 93 94 95 99 93 84 76 79 77 75 76 66 64 73 57 64 68 67 69 69 67 76 69 67 64 73 83 79 82 82 60 52 52 50 43 41 41 45
98 95 97 96 99 95 98 98 95 98 97 88 77 78 77 74 75 72 68 57 50 56 65 94 68 65 54 59 74 61 67 60 65 72 73 66 61 68 61 55 52 51 46 55
98 99 99 97 98 98 97 96 97 99 94 88 85 74 75 77 77 74 79 61 54 57 53 75 79 78 69 66 58 51 61 59 71 73 71 75 69 70 74 64 63 62 59 55
96 99 97 97 96 99 98 97 98 97 98 90 80 75 70 74 78 79 73 65 49 56 74 87 95 81 61 64 51 48 46 50 58 70 70 80 77 88 76 65 65 62 61 59
92 94 96 96 97 98 97 96 98 90 92 81 78 81 84 96 86 82 67 59 60 66 79 83 97 80 69 57 51 41 33 37 55 71 69 70 61 65 60 65 72 67 62 60
98 98 98 99 96 97 98 99 99 97 96 83 88 86 85 83 78 69 63 59 63 77 80 89 91 80 71 66 53 35 32 35 42 49 50 53 57 58 57 53 51 50 54 55
97 98 97 96 95 88 92 83 96 96 84 86 97 90 83 81 74 68 62 63 69 79 87 84 80 90 81 82 61 40 37 33 41 47 48 45 45 49 50 46 49 56 62 65
98 98 98 99 97 91 89 90 85 86 88 92 90 94 89 80 75 70 64 64 68 73 89 95 95 93 91 84 61 49 44 35 34 38 43 44 48 50 48 46 47 50 49 49
98 99 98 96 95 94 93 93 93 97 90 82 80 89 94 84 75 69 72 77 80 73 87 86 95 91 97 92 75 67 59 53 44 40 41 44 46 49 49 43 39 46 47 49
96 94 92 95 96 96 96 97 94 89 81 78 81 74 85 83 87 83 91 85 77 78 87 89 97 99 97 94 95 90 73 60 53 45 44 44 44 46 47 46 46 47 52 52
89 88 92 95 96 87 84 90 86 82 78 74 70 67 65 73 83 89 92 94 85 82 82 85 90 98 97 98 96 87 88 83 73 63 58 54 52 52 53 54 58 57 57 57
87 86 88 84 83 81 81 89 82 75 81 77 71 63 59 64 76 89 98 98 94 77 77 77 89 91 89 89 91 89 85 79 71 60 57 57 60 64 63 60 60 62 64 68
81 80 82 85 86 89 86 82 83 80 74 81 76 72 61 60 76 83 90 93 90 90 98 92 89 83 76 78 86 83 71 65 63 64 65 65 67 66 66 71 76 77 80 85
80 85 87 86 90 92 89 80 72 77 84 87 84 77 72 70 80 82 87 92 91 98 96 96 95 86 83 78 78 74 72 72 83 81 82 83 83 82 78 83 88 89 90 90
70 71 80 82 86 84 79 78 77 76 78 82 87 81 95 89 90 91 91 93 94 93 93 97 97 95 86 81 81 80 85 96 97 98 97 96 96 97 95 98 98 97 97 97
67 77 84 78 76 78 75 75 75 73 73 75 94 99 96 94 88 89 93 95 91 90 96 98 97 97 94 86 94 97 97 97 97 97 97 97 97 97 97 97 97 97 97 96
88 91 84 83 77 74 73 72 77 73 72 82 96 94 97 96 95 96 97 97 96 97 97 96 94 92 94 95 94 97 97 96 97 97 97 97 97 97 97 96 97 97 96 96

GFSNW_prec_cthk_075.txt.gz
RH
56 58 52 51 54 60 74 79 83 73 85 95 86 76 68 67 71 70 65 59 52 48 49 55 66 80 50 57 61 52 43 47 52 51 49 49 53 54 57 68 72 63 61 53
67 60 58 60 60 70 85 95 91 95 91 94 89 84 78 76 75 74 70 68 64 45 42 56 62 64 66 65 68 61 64 55 58 52 51 50 57 58 56 62 67 65 69 54
74 72 75 79 82 90 97 98 94 99 95 83 86 88 83 81 76 76 76 75 72 59 48 47 62 65 71 79 77 75 74 60 50 49 48 50 57 58 58 62 69 62 60 44
98 97 98 98 98 99 99 97 92 91 83 77 80 81 78 82 78 73 73 70 76 72 65 50 56 58 72 73 76 90 77 68 59 51 52 60 59 60 63 66 59 53 51 44
98 98 98 98 98 99 98 96 87 90 83 81 86 83 77 77 76 73 75 72 73 72 63 50 54 65 69 79 86 89 85 75 70 64 62 62 66 64 66 68 64 53 51 48
93 95 97 99 98 99 98 97 97 94 89 86 82 67 73 74 74 72 75 76 76 72 62 49 46 50 65 77 91 91 94 84 77 72 68 71 75 60 65 68 66 62 54 51
59 76 85 91 96 98 98 96 97 98 85 84 71 77 75 75 77 76 78 79 70 64 65 57 44 51 63 71 79 80 96 94 84 82 77 88 56 55 60 66 66 60 56 53
62 62 63 78 89 96 98 99 98 95 89 91 86 79 76 82 81 81 79 77 74 70 69 61 53 52 62 61 51 64 84 90 97 96 79 63 55 57 67 73 67 61 63 57
80 79 82 80 74 84 98 99 98 97 96 87 86 84 83 83 85 87 78 80 77 73 74 68 62 65 60 67 54 55 65 78 89 89 88 83 59 55 63 73 71 63 63 60
95 91 85 82 88 83 77 90 98 99 95 92 92 84 84 83 85 83 78 78 78 77 76 76 71 61 58 66 62 62 72 74 75 83 97 81 64 57 57 82 67 71 71 61
97 98 97 91 87 88 86 79 84 92 94 92 92 90 82 80 78 78 73 79 76 81 78 76 70 62 50 54 59 65 72 73 73 76 89 90 69 62 67 67 68 71 66 61
96 98 99 97 95 92 91 90 84 85 92 96 93 88 81 71 67 71 74 69 72 71 75 72 68 65 58 50 56 53 64 54 52 63 74 72 73 65 66 69 80 71 66 63
94 95 95 99 97 96 94 89 92 87 91 90 94 87 78 76 73 77 75 73 70 73 69 74 71 64 57 57 57 48 52 50 68 71 72 74 71 68 65 61 67 78 69 68
98 98 95 99 96 96 98 88 89 93 83 83 95 87 83 76 76 76 73 72 75 76 79 76 73 70 59 59 54 49 46 55 59 72 78 75 65 61 55 55 55 67 72 69
98 94 99 97 96 99 94 95 91 85 82 87 92 87 88 90 86 81 81 82 81 79 83 82 78 72 66 63 59 60 57 62 66 58 52 60 58 54 49 48 54 61 65 67
95 98 97 98 98 95 98 99 96 74 80 97 93 97 95 91 92 90 89 85 81 83 82 84 80 73 67 69 58 61 76 78 71 67 67 58 59 59 58 51 51 52 58 69
97 95 92 91 91 88 82 79 68 81 88 98 98 94 97 96 93 91 88 85 88 89 91 85 82 80 79 73 68 76 79 79 80 78 70 62 60 60 58 60 64 70 70 64
95 97 99 94 92 90 79 81 77 84 99 98 99 93 94 92 90 90 85 87 89 93 94 91 83 92 89 84 77 76 75 82 84 76 72 72 67 66 63 58 67 72 68 73
90 91 95 97 90 99 95 92 97 98 98 89 85 88 94 86 85 84 88 88 88 86 88 89 88 93 82 71 82 93 93 88 89 83 78 80 78 70 65 63 63 75 75 71
97 98 99 99 98 95 98 99 96 88 83 85 91 86 86 84 85 92 90 86 87 86 79 82 84 76 73 72 77 84 95 92 86 85 84 79 80 80 69 70 73 73 77 76
98 98 98 98 97 92 91 87 86 82 84 88 91 87 83 86 86 89 90 91 88 87 83 82 82 76 72 71 77 85 91 92 96 98 95 87 81 84 79 77 75 76 70 65
90 89 92 91 80 75 75 80 81 85 88 82 83 79 78 88 90 92 92 89 89 86 86 88 85 83 84 81 79 90 91 94 97 98 97 93 93 92 88 85 79 73 66 63
79 77 73 69 68 73 75 82 83 82 82 82 82 82 78 77 82 91 91 93 98 98 96 93 93 93 91 89 92 93 92 88 86 92 98 98 97 92 89 85 83 79 74 73
71 73 76 76 78 80 82 83 85 85 83 84 86 85 80 76 73 89 94 96 96 97 96 96 97 97 93 90 92 90 87 84 80 80 89 91 90 91 87 85 82 84 87 85
73 74 83 82 82 82 82 81 81 82 83 84 85 81 72 67 75 91 94 92 93 89 92 97 97 97 95 92 90 88 87 85 81 83 84 87 90 89 90 88 87 91 90 89
75 82 86 87 87 85 85 85 85 87 83 80 81 80 76 80 85 87 93 86 90 93 94 95 94 91 89 89 88 91 90 86 85 84 87 88 94 94 92 90 87 91 92 97
76 86 85 84 85 85 80 74 73 76 83 88 89 91 96 94 94 92 96 95 94 95 96 96 95 93 90 89 90 91 89 92 96 97 94 93 93 95 91 93 97 97 97 97